Year,Month,Day,Hour,Minute,Value (Times are PST for temperature in C)
2020,04,10,00,00,10.80
2020,04,10,00,01,10.70
2020,04,10,00,02,10.70
2020,04,10,00,03,10.70
2020,04,10,00,04,10.70
2020,04,10,00,05,10.70
2020,04,10,00,06,10.60
2020,04,10,00,07,10.60
2020,04,10,00,08,10.60
2020,04,10,00,09,10.60
2020,04,10,00,10,10.60
2020,04,10,00,11,10.50
2020,04,10,00,12,10.50
2020,04,10,00,13,10.50
2020,04,10,00,14,10.40
2020,04,10,00,15,10.40
2020,04,10,00,16,10.40
2020,04,10,00,17,10.40
2020,04,10,00,18,10.30
2020,04,10,00,19,10.30
2020,04,10,00,20,10.30
2020,04,10,00,21,10.30
2020,04,10,00,22,10.30
2020,04,10,00,23,10.30
2020,04,10,00,24,10.30
2020,04,10,00,25,10.30
2020,04,10,00,26,10.30
2020,04,10,00,27,10.20
2020,04,10,00,28,10.20
2020,04,10,00,29,10.20
2020,04,10,00,30,10.20
2020,04,10,00,31,10.20
2020,04,10,00,32,10.20
2020,04,10,00,33,10.10
2020,04,10,00,34,10.10
2020,04,10,00,35,10.10
2020,04,10,00,36,10.10
2020,04,10,00,37,10.10
2020,04,10,00,38,10.10
2020,04,10,00,39,10.00
2020,04,10,00,40,10.00
2020,04,10,00,41,10.00
2020,04,10,00,42,9.90
2020,04,10,00,43,9.90
2020,04,10,00,44,9.90
2020,04,10,00,45,9.90
2020,04,10,00,46,9.80
2020,04,10,00,47,9.80
2020,04,10,00,48,9.80
2020,04,10,00,49,9.80
2020,04,10,00,50,9.80
2020,04,10,00,51,9.80
2020,04,10,00,52,9.80
2020,04,10,00,53,9.70
2020,04,10,00,54,9.70
2020,04,10,00,55,9.70
2020,04,10,00,56,9.70
2020,04,10,00,57,9.70
2020,04,10,00,58,9.60
2020,04,10,00,59,9.60
2020,04,10,01,00,9.60
2020,04,10,01,01,9.60
2020,04,10,01,02,9.50
2020,04,10,01,03,9.60
2020,04,10,01,04,9.60
2020,04,10,01,05,9.60
2020,04,10,01,06,9.70
2020,04,10,01,07,9.70
2020,04,10,01,08,9.80
2020,04,10,01,09,9.80
2020,04,10,01,10,9.80
2020,04,10,01,11,9.90
2020,04,10,01,12,9.90
2020,04,10,01,13,9.90
2020,04,10,01,14,9.90
2020,04,10,01,15,9.90
2020,04,10,01,16,9.90
2020,04,10,01,17,9.90
2020,04,10,01,18,9.80
2020,04,10,01,19,9.80
2020,04,10,01,20,9.80
2020,04,10,01,21,9.90
2020,04,10,01,22,9.90
2020,04,10,01,23,9.90
2020,04,10,01,24,9.80
2020,04,10,01,25,9.80
2020,04,10,01,26,9.80
2020,04,10,01,27,9.80
2020,04,10,01,28,9.80
2020,04,10,01,29,9.80
2020,04,10,01,30,9.80
2020,04,10,01,31,9.80
2020,04,10,01,32,9.80
2020,04,10,01,33,9.80
2020,04,10,01,34,9.80
2020,04,10,01,35,9.80
2020,04,10,01,36,9.80
2020,04,10,01,37,9.90
2020,04,10,01,38,9.90
2020,04,10,01,39,9.90
2020,04,10,01,40,9.90
2020,04,10,01,41,9.90
2020,04,10,01,42,9.90
2020,04,10,01,43,9.90
2020,04,10,01,44,9.90
2020,04,10,01,45,9.90
2020,04,10,01,46,9.90
2020,04,10,01,47,9.90
2020,04,10,01,48,9.90
2020,04,10,01,49,9.90
2020,04,10,01,50,9.90
2020,04,10,01,51,9.90
2020,04,10,01,52,9.90
2020,04,10,01,53,9.90
2020,04,10,01,54,9.90
2020,04,10,01,55,9.90
2020,04,10,01,56,9.90
2020,04,10,01,57,9.90
2020,04,10,01,58,9.90
2020,04,10,01,59,9.90
2020,04,10,02,00,9.90
2020,04,10,02,01,9.90
2020,04,10,02,02,9.90
2020,04,10,02,03,9.90
2020,04,10,02,04,9.90
2020,04,10,02,05,9.90
2020,04,10,02,06,9.90
2020,04,10,02,07,9.80
2020,04,10,02,08,9.90
2020,04,10,02,09,9.90
2020,04,10,02,10,9.90
2020,04,10,02,11,9.90
2020,04,10,02,12,9.90
2020,04,10,02,13,9.90
2020,04,10,02,14,9.90
2020,04,10,02,15,9.90
2020,04,10,02,16,9.90
2020,04,10,02,17,9.90
2020,04,10,02,18,9.90
2020,04,10,02,19,9.90
2020,04,10,02,20,9.90
2020,04,10,02,21,9.90
2020,04,10,02,22,9.90
2020,04,10,02,23,9.90
2020,04,10,02,24,9.90
2020,04,10,02,25,9.90
2020,04,10,02,26,9.90
2020,04,10,02,27,9.90
2020,04,10,02,28,9.90
2020,04,10,02,29,9.90
2020,04,10,02,30,9.90
2020,04,10,02,31,9.90
2020,04,10,02,32,9.90
2020,04,10,02,33,9.90
2020,04,10,02,34,9.90
2020,04,10,02,35,9.90
2020,04,10,02,36,9.80
2020,04,10,02,37,9.80
2020,04,10,02,38,9.80
2020,04,10,02,39,9.80
2020,04,10,02,40,9.80
2020,04,10,02,41,9.80
2020,04,10,02,42,9.80
2020,04,10,02,43,9.80
2020,04,10,02,44,9.80
2020,04,10,02,45,9.80
2020,04,10,02,46,9.80
2020,04,10,02,47,9.80
2020,04,10,02,48,9.80
2020,04,10,02,49,9.80
2020,04,10,02,50,9.80
2020,04,10,02,51,9.80
2020,04,10,02,52,9.80
2020,04,10,02,53,9.80
2020,04,10,02,54,9.80
2020,04,10,02,55,9.70
2020,04,10,02,56,9.70
2020,04,10,02,57,9.70
2020,04,10,02,58,9.70
2020,04,10,02,59,9.70
2020,04,10,03,00,9.70
2020,04,10,03,01,9.60
2020,04,10,03,02,9.60
2020,04,10,03,03,9.60
2020,04,10,03,04,9.60
2020,04,10,03,05,9.50
2020,04,10,03,06,9.60
2020,04,10,03,07,9.50
2020,04,10,03,08,9.50
2020,04,10,03,09,9.50
2020,04,10,03,10,9.50
2020,04,10,03,11,9.50
2020,04,10,03,12,9.50
2020,04,10,03,13,9.50
2020,04,10,03,14,9.50
2020,04,10,03,15,9.40
2020,04,10,03,16,9.40
2020,04,10,03,17,9.40
2020,04,10,03,18,9.40
2020,04,10,03,19,9.40
2020,04,10,03,20,9.40
2020,04,10,03,21,9.40
2020,04,10,03,22,9.40
2020,04,10,03,23,9.40
2020,04,10,03,24,9.40
2020,04,10,03,25,9.40
2020,04,10,03,26,9.30
2020,04,10,03,27,9.30
2020,04,10,03,28,9.30
2020,04,10,03,29,9.30
2020,04,10,03,30,9.30
2020,04,10,03,31,9.30
2020,04,10,03,32,9.30
2020,04,10,03,33,9.30
2020,04,10,03,34,9.20
2020,04,10,03,35,9.20
2020,04,10,03,36,9.20
2020,04,10,03,37,9.20
2020,04,10,03,38,9.20
2020,04,10,03,39,9.20
2020,04,10,03,40,9.20
2020,04,10,03,41,9.10
2020,04,10,03,42,9.10
2020,04,10,03,43,9.10
2020,04,10,03,44,9.10
2020,04,10,03,45,9.00
2020,04,10,03,46,9.00
2020,04,10,03,47,9.00
2020,04,10,03,48,9.00
2020,04,10,03,49,9.00
2020,04,10,03,50,9.00
2020,04,10,03,51,9.00
2020,04,10,03,52,9.00
2020,04,10,03,53,9.00
2020,04,10,03,54,9.00
2020,04,10,03,55,9.00
2020,04,10,03,56,8.90
2020,04,10,03,57,8.90
2020,04,10,03,58,8.90
2020,04,10,03,59,8.90
2020,04,10,04,00,8.90
2020,04,10,04,01,8.90
2020,04,10,04,02,8.90
2020,04,10,04,03,8.90
2020,04,10,04,04,8.90
2020,04,10,04,05,8.90
2020,04,10,04,06,8.90
2020,04,10,04,07,8.80
2020,04,10,04,08,8.80
2020,04,10,04,09,8.80
2020,04,10,04,10,8.80
2020,04,10,04,11,8.80
2020,04,10,04,12,8.80
2020,04,10,04,13,8.80
2020,04,10,04,14,8.80
2020,04,10,04,15,8.80
2020,04,10,04,16,8.80
2020,04,10,04,17,8.80
2020,04,10,04,18,8.80
2020,04,10,04,19,8.80
2020,04,10,04,20,8.80
2020,04,10,04,21,8.80
2020,04,10,04,22,8.80
2020,04,10,04,23,8.80
2020,04,10,04,24,8.70
2020,04,10,04,25,8.70
2020,04,10,04,26,8.80
2020,04,10,04,27,8.80
2020,04,10,04,28,8.80
2020,04,10,04,29,8.80
2020,04,10,04,30,8.80
2020,04,10,04,31,8.80
2020,04,10,04,32,8.80
2020,04,10,04,33,8.70
2020,04,10,04,34,8.70
2020,04,10,04,35,8.70
2020,04,10,04,36,8.70
2020,04,10,04,37,8.70
2020,04,10,04,38,8.70
2020,04,10,04,39,8.80
2020,04,10,04,40,8.80
2020,04,10,04,41,8.70
2020,04,10,04,42,8.80
2020,04,10,04,43,8.80
2020,04,10,04,44,8.80
2020,04,10,04,45,8.80
2020,04,10,04,46,8.80
2020,04,10,04,47,8.80
2020,04,10,04,48,8.80
2020,04,10,04,49,8.80
2020,04,10,04,50,8.80
2020,04,10,04,51,8.90
2020,04,10,04,52,8.90
2020,04,10,04,53,8.90
2020,04,10,04,54,8.90
2020,04,10,04,55,8.90
2020,04,10,04,56,8.90
2020,04,10,04,57,8.90
2020,04,10,04,58,8.80
2020,04,10,04,59,8.80
2020,04,10,05,00,8.80
2020,04,10,05,01,8.80
2020,04,10,05,02,8.80
2020,04,10,05,03,8.80
2020,04,10,05,04,8.80
2020,04,10,05,05,8.80
2020,04,10,05,06,8.80
2020,04,10,05,07,8.80
2020,04,10,05,08,8.80
2020,04,10,05,09,8.80
2020,04,10,05,10,8.80
2020,04,10,05,11,8.80
2020,04,10,05,12,8.80
2020,04,10,05,13,8.70
2020,04,10,05,14,8.70
2020,04,10,05,15,8.70
2020,04,10,05,16,8.70
2020,04,10,05,17,8.70
2020,04,10,05,18,8.70
2020,04,10,05,19,8.70
2020,04,10,05,20,8.70
2020,04,10,05,21,8.70
2020,04,10,05,22,8.70
2020,04,10,05,23,8.60
2020,04,10,05,24,8.60
2020,04,10,05,25,8.60
2020,04,10,05,26,8.60
2020,04,10,05,27,8.60
2020,04,10,05,28,8.50
2020,04,10,05,29,8.50
2020,04,10,05,30,8.50
2020,04,10,05,31,8.50
2020,04,10,05,32,8.50
2020,04,10,05,33,8.40
2020,04,10,05,34,8.40
2020,04,10,05,35,8.50
2020,04,10,05,36,8.40
2020,04,10,05,37,8.40
2020,04,10,05,38,8.40
2020,04,10,05,39,8.50
2020,04,10,05,40,8.50
2020,04,10,05,41,8.40
2020,04,10,05,42,8.40
2020,04,10,05,43,8.40
2020,04,10,05,44,8.30
2020,04,10,05,45,8.30
2020,04,10,05,46,8.30
2020,04,10,05,47,8.30
2020,04,10,05,48,8.30
2020,04,10,05,49,8.30
2020,04,10,05,50,8.30
2020,04,10,05,51,8.30
2020,04,10,05,52,8.30
2020,04,10,05,53,8.30
2020,04,10,05,54,8.30
2020,04,10,05,55,8.30
2020,04,10,05,56,8.30
2020,04,10,05,57,8.30
2020,04,10,05,58,8.30
2020,04,10,05,59,8.30
2020,04,10,06,00,8.30
2020,04,10,06,01,8.30
2020,04,10,06,02,8.30
2020,04,10,06,03,8.30
2020,04,10,06,04,8.20
2020,04,10,06,05,8.20
2020,04,10,06,06,8.20
2020,04,10,06,07,8.20
2020,04,10,06,08,8.10
2020,04,10,06,09,8.10
2020,04,10,06,10,8.10
2020,04,10,06,11,8.10
2020,04,10,06,12,8.10
2020,04,10,06,13,8.00
2020,04,10,06,14,8.00
2020,04,10,06,15,8.10
2020,04,10,06,16,8.20
2020,04,10,06,17,8.20
2020,04,10,06,18,8.30
2020,04,10,06,19,8.30
2020,04,10,06,20,8.30
2020,04,10,06,21,8.30
2020,04,10,06,22,8.30
2020,04,10,06,23,8.30
2020,04,10,06,24,8.30
2020,04,10,06,25,8.40
2020,04,10,06,26,8.40
2020,04,10,06,27,8.50
2020,04,10,06,28,8.50
2020,04,10,06,29,8.50
2020,04,10,06,30,8.50
2020,04,10,06,31,8.50
2020,04,10,06,32,8.60
2020,04,10,06,33,8.60
2020,04,10,06,34,8.60
2020,04,10,06,35,8.70
2020,04,10,06,36,8.70
2020,04,10,06,37,8.80
2020,04,10,06,38,8.80
2020,04,10,06,39,8.80
2020,04,10,06,40,8.80
2020,04,10,06,41,8.80
2020,04,10,06,42,8.80
2020,04,10,06,43,8.70
2020,04,10,06,44,8.70
2020,04,10,06,45,8.70
2020,04,10,06,46,8.70
2020,04,10,06,47,8.70
2020,04,10,06,48,8.60
2020,04,10,06,49,8.60
2020,04,10,06,50,8.60
2020,04,10,06,51,8.60
2020,04,10,06,52,8.60
2020,04,10,06,53,8.60
2020,04,10,06,54,8.60
2020,04,10,06,55,8.60
2020,04,10,06,56,8.60
2020,04,10,06,57,8.60
2020,04,10,06,58,8.60
2020,04,10,06,59,8.70
2020,04,10,07,00,8.60
2020,04,10,07,01,8.60
2020,04,10,07,02,8.60
2020,04,10,07,03,8.60
2020,04,10,07,04,8.60
2020,04,10,07,05,8.60
2020,04,10,07,06,8.60
2020,04,10,07,07,8.60
2020,04,10,07,08,8.60
2020,04,10,07,09,8.60
2020,04,10,07,10,8.60
2020,04,10,07,11,8.60
2020,04,10,07,12,8.60
2020,04,10,07,13,8.60
2020,04,10,07,14,8.60
2020,04,10,07,15,8.60
2020,04,10,07,16,8.60
2020,04,10,07,17,8.60
2020,04,10,07,18,8.60
2020,04,10,07,19,8.70
2020,04,10,07,20,8.60
2020,04,10,07,21,8.70
2020,04,10,07,22,8.70
2020,04,10,07,23,8.70
2020,04,10,07,24,8.70
2020,04,10,07,25,8.70
2020,04,10,07,26,8.70
2020,04,10,07,27,8.80
2020,04,10,07,28,8.80
2020,04,10,07,29,8.80
2020,04,10,07,30,8.80
2020,04,10,07,31,8.90
2020,04,10,07,32,8.90
2020,04,10,07,33,9.00
2020,04,10,07,34,9.00
2020,04,10,07,35,9.10
2020,04,10,07,36,9.10
2020,04,10,07,37,9.20
2020,04,10,07,38,9.20
2020,04,10,07,39,9.20
2020,04,10,07,40,9.30
2020,04,10,07,41,9.30
2020,04,10,07,42,9.40
2020,04,10,07,43,9.40
2020,04,10,07,44,9.50
2020,04,10,07,45,9.50
2020,04,10,07,46,9.60
2020,04,10,07,47,9.60
2020,04,10,07,48,9.60
2020,04,10,07,49,9.60
2020,04,10,07,50,9.60
2020,04,10,07,51,9.60
2020,04,10,07,52,9.60
2020,04,10,07,53,9.70
2020,04,10,07,54,9.70
2020,04,10,07,55,9.70
2020,04,10,07,56,9.70
2020,04,10,07,57,9.80
2020,04,10,07,58,9.80
2020,04,10,07,59,9.90
2020,04,10,08,00,10.00
2020,04,10,08,01,10.00
2020,04,10,08,02,10.00
2020,04,10,08,03,10.00
2020,04,10,08,04,10.10
2020,04,10,08,05,10.20
2020,04,10,08,06,10.20
2020,04,10,08,07,10.20
2020,04,10,08,08,10.30
2020,04,10,08,09,10.30
2020,04,10,08,10,10.30
2020,04,10,08,11,10.30
2020,04,10,08,12,10.30
2020,04,10,08,13,10.40
2020,04,10,08,14,10.40
2020,04,10,08,15,10.40
2020,04,10,08,16,10.50
2020,04,10,08,17,10.50
2020,04,10,08,18,10.50
2020,04,10,08,19,10.60
2020,04,10,08,20,10.60
2020,04,10,08,21,10.70
2020,04,10,08,22,10.70
2020,04,10,08,23,10.70
2020,04,10,08,24,10.70
2020,04,10,08,25,10.70
2020,04,10,08,26,10.70
2020,04,10,08,27,10.70
2020,04,10,08,28,10.70
2020,04,10,08,29,10.70
2020,04,10,08,30,10.80
2020,04,10,08,31,10.80
2020,04,10,08,32,10.80
2020,04,10,08,33,10.80
2020,04,10,08,34,10.70
2020,04,10,08,35,10.70
2020,04,10,08,36,10.80
2020,04,10,08,37,10.70
2020,04,10,08,38,10.70
2020,04,10,08,39,10.70
2020,04,10,08,40,10.70
2020,04,10,08,41,10.70
2020,04,10,08,42,10.80
2020,04,10,08,43,10.80
2020,04,10,08,44,10.90
2020,04,10,08,45,10.90
2020,04,10,08,46,10.90
2020,04,10,08,47,11.00
2020,04,10,08,48,11.00
2020,04,10,08,49,11.10
2020,04,10,08,50,11.10
2020,04,10,08,51,11.20
2020,04,10,08,52,11.20
2020,04,10,08,53,11.20
2020,04,10,08,54,11.20
2020,04,10,08,55,11.30
2020,04,10,08,56,11.30
2020,04,10,08,57,11.40
2020,04,10,08,58,11.40
2020,04,10,08,59,11.40
2020,04,10,09,00,11.40
2020,04,10,09,01,11.40
2020,04,10,09,02,11.50
2020,04,10,09,03,11.50
2020,04,10,09,04,11.50
2020,04,10,09,05,11.60
2020,04,10,09,06,11.60
2020,04,10,09,07,11.50
2020,04,10,09,08,11.50
2020,04,10,09,09,11.60
2020,04,10,09,10,11.50
2020,04,10,09,11,11.60
2020,04,10,09,12,11.60
2020,04,10,09,13,11.50
2020,04,10,09,14,11.50
2020,04,10,09,15,11.40
2020,04,10,09,16,11.40
2020,04,10,09,17,11.40
2020,04,10,09,18,11.50
2020,04,10,09,19,11.50
2020,04,10,09,20,11.60
2020,04,10,09,21,11.60
2020,04,10,09,22,11.60
2020,04,10,09,23,11.60
2020,04,10,09,24,11.70
2020,04,10,09,25,11.70
2020,04,10,09,26,11.70
2020,04,10,09,27,11.70
2020,04,10,09,28,11.80
2020,04,10,09,29,11.80
2020,04,10,09,30,11.80
2020,04,10,09,31,11.80
2020,04,10,09,32,11.80
2020,04,10,09,33,11.80
2020,04,10,09,34,11.80
2020,04,10,09,35,11.80
2020,04,10,09,36,11.80
2020,04,10,09,37,11.90
2020,04,10,09,38,12.00
2020,04,10,09,39,12.10
2020,04,10,09,40,12.20
2020,04,10,09,41,12.20
2020,04,10,09,42,12.20
2020,04,10,09,43,12.30
2020,04,10,09,44,12.30
2020,04,10,09,45,12.40
2020,04,10,09,46,12.50
2020,04,10,09,47,12.60
2020,04,10,09,48,12.60
2020,04,10,09,49,12.60
2020,04,10,09,50,12.60
2020,04,10,09,51,12.50
2020,04,10,09,52,12.50
2020,04,10,09,53,12.60
2020,04,10,09,54,12.60
2020,04,10,09,55,12.50
2020,04,10,09,56,12.40
2020,04,10,09,57,12.40
2020,04,10,09,58,12.40
2020,04,10,09,59,12.40
2020,04,10,10,00,12.40
2020,04,10,10,01,12.50
2020,04,10,10,02,12.50
2020,04,10,10,03,12.60
2020,04,10,10,04,12.60
2020,04,10,10,05,12.60
2020,04,10,10,06,12.70
2020,04,10,10,07,12.70
2020,04,10,10,08,12.70
2020,04,10,10,09,12.60
2020,04,10,10,10,12.60
2020,04,10,10,11,12.50
2020,04,10,10,12,12.50
2020,04,10,10,13,12.50
2020,04,10,10,14,12.50
2020,04,10,10,15,12.50
2020,04,10,10,16,12.60
2020,04,10,10,17,12.60
2020,04,10,10,18,12.70
2020,04,10,10,19,12.80
2020,04,10,10,20,12.90
2020,04,10,10,21,12.90
2020,04,10,10,22,12.90
2020,04,10,10,23,12.90
2020,04,10,10,24,13.00
2020,04,10,10,25,13.00
2020,04,10,10,26,13.00
2020,04,10,10,27,13.00
2020,04,10,10,28,13.00
2020,04,10,10,29,13.10
2020,04,10,10,30,13.10
2020,04,10,10,31,13.10
2020,04,10,10,32,13.00
2020,04,10,10,33,13.00
2020,04,10,10,34,13.00
2020,04,10,10,35,13.00
2020,04,10,10,36,12.90
2020,04,10,10,37,12.90
2020,04,10,10,38,12.90
2020,04,10,10,39,13.00
2020,04,10,10,40,13.00
2020,04,10,10,41,13.10
2020,04,10,10,42,13.20
2020,04,10,10,43,13.30
2020,04,10,10,44,13.30
2020,04,10,10,45,13.40
2020,04,10,10,46,13.50
2020,04,10,10,47,13.50
2020,04,10,10,48,13.60
2020,04,10,10,49,13.60
2020,04,10,10,50,13.70
2020,04,10,10,51,13.60
2020,04,10,10,52,13.50
2020,04,10,10,53,13.50
2020,04,10,10,54,13.50
2020,04,10,10,55,13.60
2020,04,10,10,56,13.60
2020,04,10,10,57,13.70
2020,04,10,10,58,13.80
2020,04,10,10,59,13.90
2020,04,10,11,00,13.90
2020,04,10,11,01,13.90
2020,04,10,11,02,14.00
2020,04,10,11,03,14.00
2020,04,10,11,04,14.00
2020,04,10,11,05,14.00
2020,04,10,11,06,14.10
2020,04,10,11,07,14.00
2020,04,10,11,08,13.90
2020,04,10,11,09,13.90
2020,04,10,11,10,13.90
2020,04,10,11,11,13.90
2020,04,10,11,12,13.90
2020,04,10,11,13,14.00
2020,04,10,11,14,14.00
2020,04,10,11,15,13.90
2020,04,10,11,16,13.90
2020,04,10,11,17,14.00
2020,04,10,11,18,14.10
2020,04,10,11,19,14.10
2020,04,10,11,20,14.00
2020,04,10,11,21,14.00
2020,04,10,11,22,13.90
2020,04,10,11,23,13.90
2020,04,10,11,24,13.90
2020,04,10,11,25,13.90
2020,04,10,11,26,13.90
2020,04,10,11,27,13.90
2020,04,10,11,28,13.90
2020,04,10,11,29,14.00
2020,04,10,11,30,13.90
2020,04,10,11,31,13.90
2020,04,10,11,32,13.90
2020,04,10,11,33,13.90
2020,04,10,11,34,14.00
2020,04,10,11,35,14.00
2020,04,10,11,36,14.00
2020,04,10,11,37,14.10
2020,04,10,11,38,14.10
2020,04,10,11,39,14.10
2020,04,10,11,40,14.00
2020,04,10,11,41,14.10
2020,04,10,11,42,14.20
2020,04,10,11,43,14.30
2020,04,10,11,44,14.30
2020,04,10,11,45,14.30
2020,04,10,11,46,14.30
2020,04,10,11,47,14.40
2020,04,10,11,48,14.40
2020,04,10,11,49,14.50
2020,04,10,11,50,14.50
2020,04,10,11,51,14.60
2020,04,10,11,52,14.60
2020,04,10,11,53,14.60
2020,04,10,11,54,14.70
2020,04,10,11,55,14.60
2020,04,10,11,56,14.60
2020,04,10,11,57,14.60
2020,04,10,11,58,14.60
2020,04,10,11,59,14.70
2020,04,10,12,00,14.70
2020,04,10,12,01,14.70
2020,04,10,12,02,14.70
2020,04,10,12,03,14.70
2020,04,10,12,04,14.70
2020,04,10,12,05,14.70
2020,04,10,12,06,14.80
2020,04,10,12,07,14.80
2020,04,10,12,08,14.70
2020,04,10,12,09,14.60
2020,04,10,12,10,14.70
2020,04,10,12,11,14.80
2020,04,10,12,12,14.80
2020,04,10,12,13,14.80
2020,04,10,12,14,14.80
2020,04,10,12,15,14.80
2020,04,10,12,16,14.80
2020,04,10,12,17,14.70
2020,04,10,12,18,14.70
2020,04,10,12,19,14.70
2020,04,10,12,20,14.70
2020,04,10,12,21,14.80
2020,04,10,12,22,14.90
2020,04,10,12,23,15.00
2020,04,10,12,24,15.00
2020,04,10,12,25,15.00
2020,04,10,12,26,15.00
2020,04,10,12,27,15.10
2020,04,10,12,28,15.10
2020,04,10,12,29,15.10
2020,04,10,12,30,15.10
2020,04,10,12,31,15.10
2020,04,10,12,32,15.10
2020,04,10,12,33,15.10
2020,04,10,12,34,15.10
2020,04,10,12,35,15.10
2020,04,10,12,36,15.10
2020,04,10,12,37,15.10
2020,04,10,12,38,15.10
2020,04,10,12,39,15.20
2020,04,10,12,40,15.20
2020,04,10,12,41,15.20
2020,04,10,12,42,15.30
2020,04,10,12,43,15.30
2020,04,10,12,44,15.30
2020,04,10,12,45,15.30
2020,04,10,12,46,15.30
2020,04,10,12,47,15.40
2020,04,10,12,48,15.40
2020,04,10,12,49,15.50
2020,04,10,12,50,15.60
2020,04,10,12,51,15.60
2020,04,10,12,52,15.60
2020,04,10,12,53,15.70
2020,04,10,12,54,15.70
2020,04,10,12,55,15.80
2020,04,10,12,56,15.80
2020,04,10,12,57,15.80
2020,04,10,12,58,15.80
2020,04,10,12,59,15.70
2020,04,10,13,00,15.70
2020,04,10,13,01,15.70
2020,04,10,13,02,15.70
2020,04,10,13,03,15.70
2020,04,10,13,04,15.80
2020,04,10,13,05,15.70
2020,04,10,13,06,15.60
2020,04,10,13,07,15.60
2020,04,10,13,08,15.60
2020,04,10,13,09,15.70
2020,04,10,13,10,15.70
2020,04,10,13,11,15.80
2020,04,10,13,12,15.80
2020,04,10,13,13,15.80
2020,04,10,13,14,15.80
2020,04,10,13,15,15.70
2020,04,10,13,16,15.70
2020,04,10,13,17,15.60
2020,04,10,13,18,15.60
2020,04,10,13,19,15.50
2020,04,10,13,20,15.50
2020,04,10,13,21,15.50
2020,04,10,13,22,15.50
2020,04,10,13,23,15.50
2020,04,10,13,24,15.50
2020,04,10,13,25,15.50
2020,04,10,13,26,15.60
2020,04,10,13,27,15.60
2020,04,10,13,28,15.70
2020,04,10,13,29,15.60
2020,04,10,13,30,15.70
2020,04,10,13,31,15.70
2020,04,10,13,32,15.60
2020,04,10,13,33,15.60
2020,04,10,13,34,15.60
2020,04,10,13,35,15.50
2020,04,10,13,36,15.60
2020,04,10,13,37,15.50
2020,04,10,13,38,15.50
2020,04,10,13,39,15.50
2020,04,10,13,40,15.50
2020,04,10,13,41,15.50
2020,04,10,13,42,15.50
2020,04,10,13,43,15.60
2020,04,10,13,44,15.60
2020,04,10,13,45,15.60
2020,04,10,13,46,15.60
2020,04,10,13,47,15.60
2020,04,10,13,48,15.70
2020,04,10,13,49,15.70
2020,04,10,13,50,15.70
2020,04,10,13,51,15.70
2020,04,10,13,52,15.70
2020,04,10,13,53,15.80
2020,04,10,13,54,15.80
2020,04,10,13,55,15.80
2020,04,10,13,56,15.80
2020,04,10,13,57,15.80
2020,04,10,13,58,15.70
2020,04,10,13,59,15.70
2020,04,10,14,00,15.80
2020,04,10,14,01,15.80
2020,04,10,14,02,15.90
2020,04,10,14,03,15.80
2020,04,10,14,04,15.80
2020,04,10,14,05,15.70
2020,04,10,14,06,15.70
2020,04,10,14,07,15.70
2020,04,10,14,08,15.70
2020,04,10,14,09,15.70
2020,04,10,14,10,15.70
2020,04,10,14,11,15.60
2020,04,10,14,12,15.60
2020,04,10,14,13,15.50
2020,04,10,14,14,15.50
2020,04,10,14,15,15.50
2020,04,10,14,16,15.50
2020,04,10,14,17,15.50
2020,04,10,14,18,15.60
2020,04,10,14,19,15.70
2020,04,10,14,20,15.70
2020,04,10,14,21,15.70
2020,04,10,14,22,15.70
2020,04,10,14,23,15.60
2020,04,10,14,24,15.60
2020,04,10,14,25,15.50
2020,04,10,14,26,15.40
2020,04,10,14,27,15.40
2020,04,10,14,28,15.40
2020,04,10,14,29,15.50
2020,04,10,14,30,15.50
2020,04,10,14,31,15.50
2020,04,10,14,32,15.50
2020,04,10,14,33,15.50
2020,04,10,14,34,15.50
2020,04,10,14,35,15.50
2020,04,10,14,36,15.60
2020,04,10,14,37,15.60
2020,04,10,14,38,15.60
2020,04,10,14,39,15.70
2020,04,10,14,40,15.70
2020,04,10,14,41,15.70
2020,04,10,14,42,15.70
2020,04,10,14,43,15.80
2020,04,10,14,44,15.80
2020,04,10,14,45,15.90
2020,04,10,14,46,15.90
2020,04,10,14,47,15.90
2020,04,10,14,48,15.90
2020,04,10,14,49,15.90
2020,04,10,14,50,15.80
2020,04,10,14,51,15.80
2020,04,10,14,52,15.80
2020,04,10,14,53,15.80
2020,04,10,14,54,15.70
2020,04,10,14,55,15.60
2020,04,10,14,56,15.60
2020,04,10,14,57,15.50
2020,04,10,14,58,15.40
2020,04,10,14,59,15.50
2020,04,10,15,00,15.50
2020,04,10,15,01,15.60
2020,04,10,15,02,15.60
2020,04,10,15,03,15.60
2020,04,10,15,04,15.60
2020,04,10,15,05,15.50
2020,04,10,15,06,15.40
2020,04,10,15,07,15.40
2020,04,10,15,08,15.40
2020,04,10,15,09,15.40
2020,04,10,15,10,15.50
2020,04,10,15,11,15.50
2020,04,10,15,12,15.60
2020,04,10,15,13,15.60
2020,04,10,15,14,15.60
2020,04,10,15,15,15.60
2020,04,10,15,16,15.60
2020,04,10,15,17,15.70
2020,04,10,15,18,15.70
2020,04,10,15,19,15.70
2020,04,10,15,20,15.60
2020,04,10,15,21,15.60
2020,04,10,15,22,15.60
2020,04,10,15,23,15.80
2020,04,10,15,24,15.90
2020,04,10,15,25,15.90
2020,04,10,15,26,15.90
2020,04,10,15,27,15.90
2020,04,10,15,28,15.90
2020,04,10,15,29,16.10
2020,04,10,15,30,16.20
2020,04,10,15,31,16.20
2020,04,10,15,32,16.20
2020,04,10,15,33,16.20
2020,04,10,15,34,16.20
2020,04,10,15,35,16.30
2020,04,10,15,36,16.40
2020,04,10,15,37,16.40
2020,04,10,15,38,16.40
2020,04,10,15,39,16.50
2020,04,10,15,40,16.50
2020,04,10,15,41,16.60
2020,04,10,15,42,16.70
2020,04,10,15,43,16.80
2020,04,10,15,44,16.80
2020,04,10,15,45,16.70
2020,04,10,15,46,16.60
2020,04,10,15,47,16.70
2020,04,10,15,48,16.80
2020,04,10,15,49,16.90
2020,04,10,15,50,17.00
2020,04,10,15,51,17.00
2020,04,10,15,52,17.00
2020,04,10,15,53,17.00
2020,04,10,15,54,17.10
2020,04,10,15,55,17.00
2020,04,10,15,56,17.00
2020,04,10,15,57,16.80
2020,04,10,15,58,16.70
2020,04,10,15,59,16.60
2020,04,10,16,00,16.60
2020,04,10,16,01,16.50
2020,04,10,16,02,16.50
2020,04,10,16,03,16.40
2020,04,10,16,04,16.40
2020,04,10,16,05,16.50
2020,04,10,16,06,16.50
2020,04,10,16,07,16.40
2020,04,10,16,08,16.40
2020,04,10,16,09,16.30
2020,04,10,16,10,16.20
2020,04,10,16,11,16.20
2020,04,10,16,12,16.20
2020,04,10,16,13,16.20
2020,04,10,16,14,16.30
2020,04,10,16,15,16.30
2020,04,10,16,16,16.40
2020,04,10,16,17,16.40
2020,04,10,16,18,16.40
2020,04,10,16,19,16.40
2020,04,10,16,20,16.40
2020,04,10,16,21,16.40
2020,04,10,16,22,16.50
2020,04,10,16,23,16.50
2020,04,10,16,24,16.60
2020,04,10,16,25,16.60
2020,04,10,16,26,16.50
2020,04,10,16,27,16.40
2020,04,10,16,28,16.40
2020,04,10,16,29,16.40
2020,04,10,16,30,16.40
2020,04,10,16,31,16.30
2020,04,10,16,32,16.20
2020,04,10,16,33,16.10
2020,04,10,16,34,16.10
2020,04,10,16,35,16.00
2020,04,10,16,36,16.00
2020,04,10,16,37,16.10
2020,04,10,16,38,16.00
2020,04,10,16,39,16.10
2020,04,10,16,40,16.10
2020,04,10,16,41,16.20
2020,04,10,16,42,16.20
2020,04,10,16,43,16.20
2020,04,10,16,44,16.20
2020,04,10,16,45,16.30
2020,04,10,16,46,16.30
2020,04,10,16,47,16.40
2020,04,10,16,48,16.40
2020,04,10,16,49,16.40
2020,04,10,16,50,16.30
2020,04,10,16,51,16.30
2020,04,10,16,52,16.20
2020,04,10,16,53,16.20
2020,04,10,16,54,16.10
2020,04,10,16,55,16.00
2020,04,10,16,56,15.90
2020,04,10,16,57,15.90
2020,04,10,16,58,15.90
2020,04,10,16,59,16.00
2020,04,10,17,00,16.10
2020,04,10,17,01,16.20
2020,04,10,17,02,16.20
2020,04,10,17,03,16.20
2020,04,10,17,04,16.20
2020,04,10,17,05,16.10
2020,04,10,17,06,16.10
2020,04,10,17,07,16.10
2020,04,10,17,08,16.10
2020,04,10,17,09,16.00
2020,04,10,17,10,16.00
2020,04,10,17,11,16.00
2020,04,10,17,12,16.00
2020,04,10,17,13,15.90
2020,04,10,17,14,16.00
2020,04,10,17,15,16.00
2020,04,10,17,16,16.00
2020,04,10,17,17,16.00
2020,04,10,17,18,16.10
2020,04,10,17,19,16.10
2020,04,10,17,20,16.10
2020,04,10,17,21,16.00
2020,04,10,17,22,16.00
2020,04,10,17,23,16.10
2020,04,10,17,24,16.20
2020,04,10,17,25,16.20
2020,04,10,17,26,16.30
2020,04,10,17,27,16.30
2020,04,10,17,28,16.20
2020,04,10,17,29,16.20
2020,04,10,17,30,16.10
2020,04,10,17,31,16.00
2020,04,10,17,32,15.90
2020,04,10,17,33,15.90
2020,04,10,17,34,15.90
2020,04,10,17,35,15.90
2020,04,10,17,36,15.90
2020,04,10,17,37,15.80
2020,04,10,17,38,15.80